Satellite-Ground Cal/Val Site Overpasses Predictions

Prediction of Satellite NPP Overpassing Cal/Val Site: Antarctic Dome C

Ground Cal/Val Site Location: Latitude: -75.10, Longitude: 123.35; Satellite-Ground Site NADIR distance within 100 km.

Table of predicted overpasses for the next 14.0 days since TLE Epoch: 12/21/2024
Interval Starting Time Ending Time Minimum Distance Time Minimum Distance (km)
1 12/21/2024 07:19:25 12/21/2024 07:19:45 12/21/2024 07:19:35 72.93
2 12/23/2024 15:01:45 12/23/2024 15:02:07 12/23/2024 15:01:56 62.75
3 12/24/2024 14:42:54 12/24/2024 14:43:20 12/24/2024 14:43:07 46.47
4 12/25/2024 07:44:38 12/25/2024 07:44:58 12/25/2024 07:44:48 72.64
5 12/26/2024 07:25:47 12/26/2024 07:26:14 12/26/2024 07:26:00 35.05
6 12/29/2024 14:49:17 12/29/2024 14:49:46 12/29/2024 14:49:32 10.37
7 12/31/2024 07:32:09 12/31/2024 07:32:38 12/31/2024 07:32:24 3.60
